Flag Weather past 2 weeks in Maceió, Alagoas, Brazil

Now
79 °F

Scattered clouds.


Feels Like: 82 °F
Forecast: N/A
Wind: 10 mph from Southeast

Location: Maceio Aeroporto

Current Time: Nov 25, 2014 at 6:25:11 PM

Latest Report: Nov 25, 2014 at 6:00 PM


Visibility: N/A

Pressure: 29.89 "Hg

Humidity: 84%

Dew point: 73 °F

Location of MaceióLocation

Historic Weather in Maceió — Graph

°F

Maceió temperature yesterday

Maximum temperature yesterday: 88 °F (at 10:00 AM)
Minimum temperature yesterday: 70 °F (at 3:00 AM)
Average temperature yesterday: 79 °F

Past Weeks' High & Low Weather Summary

 TemperatureHumidityPressure
High95 °F (Nov 16, 12:00 PM)100% (Nov 11, 2:00 AM)30.01 "Hg (Nov 11, 2:00 AM)
Low41 °F (Nov 17, 9:00 PM)41% (Nov 16, 12:00 PM)29.77 "Hg (Nov 16, 3:00 PM)
Average80 °F81%29.91 "Hg
* Reported Nov 10 5:00 PM — Nov 25 5:00 PM, Maceió, Weather by CustomWeather, © 2014

Note: Actual official high and low records may vary slightly from our data, if they occured in-between our weather recording intervals... More about our weather records

Advertising

Maceió weather history for previous 24 hours

 ConditionsComfort  
Time TempWeatherWind HumidityBarometerVisibility
5:00 PM
Nov 25
82 °FScattered clouds.13 mph70%29.89 "HgN/A
4:00 PM82 °FScattered clouds.15 mph70%29.89 "HgN/A
3:00 PM86 °FScattered clouds.16 mph62%29.89 "HgN/A
2:00 PM86 °FScattered clouds.17 mph62%29.89 "HgN/A
1:00 PM88 °FScattered clouds.17 mph59%29.92 "HgN/A
12:00 PM88 °FScattered clouds.14 mph55%29.92 "HgN/A
11:00 AM88 °FScattered clouds.13 mph59%29.95 "HgN/A
10:00 AM84 °FScattered clouds.12 mph66%29.98 "HgN/A
9:00 AM84 °FScattered clouds.14 mph70%29.98 "HgN/A
8:00 AM81 °FScattered clouds.9 mph79%29.98 "HgN/A
7:00 AM79 °FScattered clouds.7 mph89%29.98 "HgN/A
6:00 AM75 °FScattered clouds.3 mph100%29.95 "HgN/A
5:00 AM75 °FPassing clouds.3 mph94%29.95 "HgN/A
4:00 AM73 °FPassing clouds.3 mph100%29.95 "HgN/A
3:00 AM75 °FClear.2 mph94%29.92 "Hg10 mi
2:00 AM73 °FClear.2 mph100%29.92 "Hg10 mi
1:00 AM73 °FClear.2 mph100%29.95 "Hg10 mi
12:00 AM75 °FClear.3 mph94%29.98 "Hg10 mi
11:00 PM
Nov 24
75 °FPassing clouds.3 mph94%29.98 "HgN/A
10:00 PM77 °FPassing clouds.7 mph89%29.98 "HgN/A
9:00 PM77 °FPassing clouds.5 mph89%29.98 "HgN/A
8:00 PM77 °FPassing clouds.5 mph89%29.98 "HgN/A
7:00 PM79 °FPassing clouds.7 mph89%29.95 "HgN/A
6:00 PM79 °FScattered clouds.10 mph89%29.92 "HgN/A
Weather by CustomWeather, © 2014

See weather overviewHow to use our weather pages